Location: *
(38.9800°N, 16.0500°E)
Time: 21:45:28
(UTC+00:00)

CZ-2D R/B - Pass Details

Date: 07 April 2020
Orbit: 792 x 845 km, 98.7° (Epoch: 24 May)

Event Time Altitude Azimuth Distance (km) Brightness Sun altitude
Rises 00:21:15 0° 16° (NNE) 3,411 6.2 -40.2°
Reaches altitude 10° 00:23:39 10° 19° (NNE) 2,473 5.3 -40.0°
Enters shadow 00:25:50 25° 24° (NNE) 1,657 4.2 -39.8°
